Terminal Aerodrome Forecast
Issued by NWS

Home | Current Version | Previous Version | Graphics & Text | Print | Product List | Glossary On
Versions: 1 2 3 4 5 6 7 8 9 10 11 12 13 14 15 16 17 18 19 20 21
000
FTUS43 KOAX 230400 AAB
TAFCDR
TAF AMD
KCDR 230409Z 2304/2324 07010G20KT P6SM -RA VCTS BKN025 BKN050CB
     FM230500 15008KT P6SM SKC
     FM231800 16013G22KT P6SM VCTS SCT100CB=

USA.gov is the U.S. government's official web portal to all federal, state and local government web resources and services.